CFG4805 EDDF-EDDM

Flight info

Callsign CFG4805
Flight time 0h 31m
Altitude 23000
Route CINDY8S/18 CINDY Z74 HAREM T104 ROKIL ROKIL1A
Aircraft A320/M-SDE3FGHIJ1LORVWXYZ/S

Departure

Time 2026-04-17 12:20
Airport Frankfurt Main Airport (EDDF)

Arrival

Time 2026-04-17 12:52
Airport Munich Airport (EDDM)
Time Latitude Longitude Altitude Speed Heading
2026-04-17 11:32 50.04390 8.56999 366 ft 0 kts 160°
2026-04-17 12:13 50.04363 8.57015 362 ft 13 kts 160°
2026-04-17 12:13 50.04286 8.56960 359 ft 20 kts 247°
2026-04-17 12:13 50.04224 8.56682 363 ft 29 kts 250°
2026-04-17 12:13 50.04153 8.56394 360 ft 30 kts 249°
2026-04-17 12:14 50.04085 8.56107 355 ft 28 kts 250°
2026-04-17 12:14 50.04015 8.55817 353 ft 27 kts 249°
2026-04-17 12:14 50.03948 8.55543 354 ft 27 kts 249°
2026-04-17 12:14 50.03880 8.55258 350 ft 29 kts 249°
2026-04-17 12:15 50.03812 8.54968 351 ft 29 kts 249°
2026-04-17 12:15 50.03743 8.54683 352 ft 29 kts 250°
2026-04-17 12:15 50.03675 8.54394 346 ft 27 kts 250°
2026-04-17 12:15 50.03606 8.54108 348 ft 26 kts 249°
2026-04-17 12:16 50.03537 8.53827 340 ft 28 kts 249°
2026-04-17 12:16 50.03469 8.53536 335 ft 30 kts 250°
2026-04-17 12:16 50.03402 8.53255 335 ft 28 kts 250°
2026-04-17 12:16 50.03340 8.52990 335 ft 22 kts 250°
2026-04-17 12:17 50.03298 8.52812 333 ft 14 kts 250°
2026-04-17 12:17 50.03285 8.52755 333 ft 0 kts 250°
2026-04-17 12:17 50.03284 8.52754 333 ft 0 kts 250°
2026-04-17 12:18 50.03273 8.52706 331 ft 12 kts 248°
2026-04-17 12:18 50.03207 8.52606 335 ft 16 kts 206°
2026-04-17 12:18 50.03148 8.52597 334 ft 0 kts 180°
2026-04-17 12:20 50.03140 8.52597 336 ft 8 kts 180°
2026-04-17 12:20 50.02757 8.52600 336 ft 102 kts 180°
2026-04-17 12:20 50.01782 8.52603 409 ft 167 kts 181°
2026-04-17 12:20 50.00602 8.52618 1281 ft 172 kts 180°
2026-04-17 12:21 49.99374 8.52628 2202 ft 187 kts 181°
2026-04-17 12:21 49.97994 8.52655 2851 ft 212 kts 175°
2026-04-17 12:21 49.96569 8.53533 3612 ft 233 kts 144°
2026-04-17 12:21 49.95554 8.55510 3916 ft 236 kts 121°
2026-04-17 12:22 49.94758 8.57738 3997 ft 237 kts 120°
2026-04-17 12:22 49.93919 8.60125 4009 ft 261 kts 120°
2026-04-17 12:22 49.93038 8.62627 4016 ft 265 kts 120°
2026-04-17 12:22 49.92148 8.65141 4017 ft 266 kts 120°
2026-04-17 12:23 49.91253 8.67652 4005 ft 266 kts 120°
2026-04-17 12:23 49.90659 8.69313 4004 ft 266 kts 120°
2026-04-17 12:23 49.89760 8.71818 4011 ft 266 kts 121°
2026-04-17 12:23 49.88788 8.74305 4695 ft 269 kts 127°
2026-04-17 12:24 49.87683 8.76643 6149 ft 269 kts 128°
2026-04-17 12:24 49.86552 8.78977 7462 ft 273 kts 128°
2026-04-17 12:24 49.85395 8.81345 8706 ft 278 kts 128°
2026-04-17 12:24 49.84216 8.83760 9943 ft 284 kts 127°
2026-04-17 12:25 49.82993 8.86269 10788 ft 303 kts 127°
2026-04-17 12:25 49.81675 8.88968 11372 ft 327 kts 128°
2026-04-17 12:25 49.80264 8.91852 12197 ft 341 kts 127°
2026-04-17 12:25 49.78816 8.94812 13209 ft 349 kts 127°
2026-04-17 12:26 49.77338 8.97836 14178 ft 357 kts 127°
2026-04-17 12:26 49.75827 9.00928 15079 ft 363 kts 128°
2026-04-17 12:26 49.74294 9.04068 15981 ft 368 kts 128°
2026-04-17 12:26 49.72741 9.07242 16897 ft 374 kts 127°
2026-04-17 12:27 49.71157 9.10472 17776 ft 380 kts 127°
2026-04-17 12:27 49.69550 9.13744 18624 ft 385 kts 127°
2026-04-17 12:27 49.67936 9.17020 19373 ft 391 kts 127°
2026-04-17 12:27 49.66278 9.20382 20143 ft 396 kts 127°
2026-04-17 12:28 49.64598 9.23788 20930 ft 401 kts 128°
2026-04-17 12:28 49.62900 9.27225 21705 ft 406 kts 128°
2026-04-17 12:28 49.61176 9.30712 22465 ft 411 kts 128°
2026-04-17 12:28 49.59428 9.34244 23028 ft 417 kts 128°
2026-04-17 12:29 49.57668 9.37792 23193 ft 417 kts 128°
2026-04-17 12:29 49.55897 9.41353 23222 ft 418 kts 128°
2026-04-17 12:29 49.54132 9.44903 23227 ft 417 kts 128°
2026-04-17 12:29 49.52368 9.48449 23225 ft 418 kts 127°
2026-04-17 12:30 49.50597 9.52003 23230 ft 418 kts 127°
2026-04-17 12:30 49.48823 9.55550 23233 ft 418 kts 128°
2026-04-17 12:30 49.47046 9.59091 23234 ft 418 kts 128°
2026-04-17 12:30 49.45272 9.62629 23236 ft 418 kts 128°
2026-04-17 12:31 49.43498 9.66172 23241 ft 418 kts 127°
2026-04-17 12:31 49.41725 9.69715 23240 ft 418 kts 127°
2026-04-17 12:31 49.39952 9.73255 23243 ft 418 kts 128°
2026-04-17 12:31 49.38175 9.76791 23221 ft 418 kts 128°
2026-04-17 12:32 49.36396 9.80325 23220 ft 418 kts 128°
2026-04-17 12:32 49.34615 9.83853 23227 ft 418 kts 127°
2026-04-17 12:32 49.32829 9.87380 23219 ft 419 kts 127°
2026-04-17 12:32 49.31049 9.90902 23219 ft 419 kts 127°
2026-04-17 12:33 49.29264 9.94434 23218 ft 419 kts 127°
2026-04-17 12:33 49.27478 9.97960 23221 ft 419 kts 128°
2026-04-17 12:33 49.25689 10.01482 23222 ft 419 kts 128°
2026-04-17 12:33 49.23898 10.04997 23225 ft 419 kts 128°
2026-04-17 12:34 49.22102 10.08517 23226 ft 419 kts 128°
2026-04-17 12:34 49.20309 10.12028 23227 ft 419 kts 128°
2026-04-17 12:34 49.18541 10.15488 23237 ft 419 kts 128°
2026-04-17 12:34 49.16745 10.18999 23237 ft 419 kts 128°
2026-04-17 12:35 49.14930 10.22548 23245 ft 419 kts 127°
2026-04-17 12:35 49.13004 10.25894 23237 ft 420 kts 133°
2026-04-17 12:35 49.10994 10.29132 23252 ft 420 kts 133°
2026-04-17 12:35 49.09006 10.32327 23256 ft 420 kts 133°
2026-04-17 12:37 48.95305 10.54240 20156 ft 394 kts 134°
2026-04-17 12:37 48.93420 10.57240 19588 ft 390 kts 134°
2026-04-17 12:38 48.91551 10.60216 19013 ft 388 kts 133°
2026-04-17 12:38 48.89692 10.63176 18441 ft 385 kts 133°
2026-04-17 12:38 48.87849 10.66108 17835 ft 382 kts 133°
2026-04-17 12:38 48.86027 10.69001 17269 ft 378 kts 134°
2026-04-17 12:39 48.84211 10.71870 16705 ft 374 kts 134°
2026-04-17 12:39 48.82416 10.74702 16164 ft 370 kts 134°
2026-04-17 12:39 48.80644 10.77499 15634 ft 366 kts 134°
2026-04-17 12:39 48.78882 10.80275 15291 ft 364 kts 134°
2026-04-17 12:40 48.77124 10.83040 15217 ft 364 kts 134°
2026-04-17 12:40 48.75364 10.85804 15235 ft 365 kts 134°
2026-04-17 12:40 48.73597 10.88571 15205 ft 364 kts 134°
2026-04-17 12:40 48.71848 10.91301 14744 ft 360 kts 134°
2026-04-17 12:41 48.70116 10.94002 14231 ft 357 kts 134°
2026-04-17 12:41 48.68392 10.96692 13679 ft 354 kts 134°
2026-04-17 12:41 48.66692 10.99346 13117 ft 350 kts 134°
2026-04-17 12:41 48.65009 11.01971 12572 ft 346 kts 134°
2026-04-17 12:42 48.63342 11.04559 12022 ft 341 kts 134°
2026-04-17 12:42 48.61693 11.07114 11475 ft 337 kts 133°
2026-04-17 12:42 48.60064 11.09638 10945 ft 333 kts 133°
2026-04-17 12:42 48.58445 11.12125 10423 ft 330 kts 136°
2026-04-17 12:43 48.56647 11.14244 10233 ft 328 kts 145°
2026-04-17 12:43 48.54808 11.16109 10210 ft 307 kts 145°
2026-04-17 12:43 48.53071 11.17878 10215 ft 297 kts 145°
2026-04-17 12:43 48.51413 11.19707 10218 ft 294 kts 137°
2026-04-17 12:44 48.50021 11.21955 10195 ft 291 kts 129°
2026-04-17 12:44 48.48727 11.24248 9498 ft 285 kts 130°
2026-04-17 12:44 48.47461 11.26467 8752 ft 280 kts 130°
2026-04-17 12:44 48.46185 11.28689 8219 ft 279 kts 130°
2026-04-17 12:45 48.44924 11.30885 7772 ft 275 kts 129°
2026-04-17 12:45 48.43680 11.33050 7370 ft 271 kts 130°
2026-04-17 12:45 48.42452 11.35186 6980 ft 267 kts 129°
2026-04-17 12:45 48.41251 11.37278 6498 ft 264 kts 129°
2026-04-17 12:46 48.40052 11.39370 6012 ft 264 kts 129°
2026-04-17 12:46 48.38861 11.41447 5501 ft 262 kts 129°
2026-04-17 12:46 48.37674 11.43519 5134 ft 262 kts 129°
2026-04-17 12:46 48.36485 11.45588 5000 ft 262 kts 129°
2026-04-17 12:47 48.35312 11.47699 5005 ft 263 kts 123°
2026-04-17 12:47 48.34544 11.50150 4888 ft 255 kts 104°
2026-04-17 12:47 48.34384 11.52664 4617 ft 231 kts 85°
2026-04-17 12:47 48.34563 11.54977 4332 ft 215 kts 82°
2026-04-17 12:48 48.34738 11.57151 4055 ft 204 kts 83°
2026-04-17 12:48 48.34901 11.59203 3800 ft 192 kts 82°
2026-04-17 12:48 48.35055 11.61152 3552 ft 182 kts 83°
2026-04-17 12:48 48.35197 11.62956 3344 ft 171 kts 83°
2026-04-17 12:49 48.35330 11.64646 3103 ft 154 kts 83°
2026-04-17 12:49 48.35448 11.66159 2921 ft 138 kts 84°
2026-04-17 12:49 48.35556 11.67525 2728 ft 125 kts 82°
2026-04-17 12:49 48.35655 11.68790 2561 ft 119 kts 83°
2026-04-17 12:50 48.35751 11.70018 2409 ft 118 kts 82°
2026-04-17 12:50 48.35847 11.71239 2250 ft 118 kts 81°
2026-04-17 12:50 48.35951 11.72482 2085 ft 121 kts 81°
2026-04-17 12:50 48.36040 11.73742 1929 ft 120 kts 82°
2026-04-17 12:51 48.36136 11.74977 1727 ft 117 kts 80°
2026-04-17 12:51 48.36229 11.76196 1600 ft 116 kts 82°
2026-04-17 12:51 48.36323 11.77379 1477 ft 107 kts 83°
2026-04-17 12:51 48.36396 11.78287 1486 ft 71 kts 83°
2026-04-17 12:52 48.36400 11.78738 1483 ft 20 kts 119°
2026-04-17 12:52 48.36345 11.78950 1476 ft 23 kts 111°
2026-04-17 12:52 48.36285 11.79154 1478 ft 16 kts 112°
2026-04-17 12:52 48.36276 11.79186 1476 ft 0 kts 113°
2026-04-17 12:53 48.36232 11.79281 1480 ft 27 kts 140°
2026-04-17 12:53 48.36094 11.79285 1484 ft 9 kts 224°
2026-04-17 12:53 48.36080 11.79159 1483 ft 20 kts 262°
2026-04-17 12:53 48.36065 11.78955 1475 ft 19 kts 263°
2026-04-17 12:54 48.36050 11.78758 1480 ft 19 kts 263°
2026-04-17 12:54 48.36035 11.78559 1486 ft 20 kts 263°
2026-04-17 12:54 48.36019 11.78340 1481 ft 23 kts 263°
2026-04-17 12:54 48.35998 11.78099 1482 ft 22 kts 262°
2026-04-17 12:55 48.35980 11.77886 1486 ft 19 kts 256°
2026-04-17 12:55 48.35897 11.77850 1481 ft 11 kts 173°
2026-04-17 12:55 48.35866 11.77856 1486 ft 0 kts 173°
2026-04-17 12:55 48.35865 11.77856 1486 ft 0 kts 173°
2026-04-17 12:56 48.35862 11.77857 1486 ft 1 kts 173°
2026-04-17 12:56 48.35828 11.77861 1477 ft 11 kts 181°
2026-04-17 12:56 48.35776 11.77799 1482 ft 10 kts 260°
2026-04-17 12:56 48.35735 11.77717 1480 ft 14 kts 188°
2026-04-17 12:57 48.35627 11.77735 1486 ft 18 kts 173°
2026-04-17 12:57 48.35492 11.77759 1474 ft 22 kts 173°
2026-04-17 12:57 48.35350 11.77784 1486 ft 0 kts 167°
2026-04-17 12:57 48.35336 11.77819 1483 ft 11 kts 104°
2026-04-17 12:58 48.35341 11.77957 1486 ft 15 kts 83°
2026-04-17 12:58 48.35353 11.78136 1486 ft 13 kts 96°
2026-04-17 12:58 48.35312 11.78165 1486 ft 10 kts 175°
2026-04-17 12:58 48.35200 11.78186 1476 ft 19 kts 171°
2026-04-17 12:59 48.35122 11.78219 1478 ft 4 kts 105°
2026-04-17 12:59 48.35126 11.78293 1486 ft 11 kts 81°
2026-04-17 12:59 48.35131 11.78343 1479 ft 0 kts 83°